Jordan, MT

5:37 PM MDT on August 28, 2016 (GMT -0600)
Jordan

Weather History for KJDN - January, 2013

Change the Weather History Date:

Monday, January 28, 2013

  Actual Average Record
Temperature  
Mean Temperature 28 °F 18 °F  
Max Temperature 39 °F 30 °F 60 °F (1992)
Min Temperature 16 °F 7 °F -42 °F (1969)
Degree Days  
Heating Degree Days 37 47  
Month to date heating degree days 1211 1343  
Since 1 July heating degree days 4310 4793  
Cooling Degree Days 0 0  
Month to date cooling degree days 0 0  
Year to date cooling degree days 0 0  
Moisture  
Dew Point 20 °F    
Average Humidity 68    
Maximum Humidity 92    
Minimum Humidity 44    
Precipitation  
Precipitation 0.00 in 0.01 in 0.39 in (1959)
Month to date precipitation 0.26 0.22  
Year to date precipitation 0.26 0.22  
Snow  
Snow 0.00 in - - ()
Month to date snowfall 0.0  
Since 1 July snowfall 0.0  
Snow Depth 0.00 in    
Sea Level Pressure  
Sea Level Pressure 29.83 in    
Wind  
Wind Speed 6 mph (West)    
Max Wind Speed 17 mph    
Max Gust Speed 21 mph    
T = Trace of Precipitation, MM = Missing Value Source: NWS Daily Summary

Daily Weather History Graph

Daily Weather History Graph

Search for Another Location

Airport or City:

Trip Planner

Search our weather history database for the weather conditions in past years. The results will help you decide how hot, cold, wet, or windy it might be!

Date:

Astronomy

Jan. 28, 2013 Rise Set
Actual Time 7:38 AM MST 5:04 PM MST
Civil Twilight 7:04 AM MST 5:37 PM MST
Nautical Twilight 6:27 AM MST 6:14 PM MST
Astronomical Twilight 5:51 AM MST 6:50 PM MST
Moon 7:13 PM MST 7:55 AM MST
Length of Visible Light 10h 32m
Length of Day
9h 26m
Full, 97% of the Moon is Illuminated
Jan 28
Full
Feb 3
Last Quarter
Feb 10
New
Feb 17
First Quarter
Feb 25
Full

Hourly Weather History & Observations

Time (MST) Temp. Windchill Dew Point Humidity Pressure Visibility Wind Dir Wind Speed Gust Speed Precip Events Conditions
12:48 AM 28.9 °F 25.2 °F 25.0 °F 85% 29.85 in - WSW 3.5 mph - N/A   Unknown
1:48 AM 28.0 °F 24.2 °F 25.0 °F 88% 29.84 in - West 3.5 mph - N/A   Unknown
2:48 AM 28.0 °F - 25.0 °F 88% 29.84 in - Calm Calm - N/A   Unknown
3:48 AM 27.0 °F 20.5 °F 24.1 °F 89% 29.85 in - WNW 5.8 mph - N/A   Unknown
4:48 AM 28.0 °F 20.8 °F 23.0 °F 81% 29.85 in - WNW 6.9 mph - N/A   Unknown
5:48 AM 28.0 °F 20.8 °F 21.9 °F 78% 29.86 in - West 6.9 mph - N/A   Unknown
6:48 AM 27.0 °F 20.5 °F 21.0 °F 78% 29.87 in - WNW 5.8 mph - N/A   Unknown
7:48 AM 27.0 °F 19.5 °F 21.0 °F 78% 29.88 in - West 6.9 mph - N/A   Unknown
8:48 AM 28.9 °F 21.9 °F 21.9 °F 75% 29.87 in - West 6.9 mph - N/A   Unknown
9:48 AM 32.0 °F 24.2 °F 21.9 °F 66% 29.87 in - West 9.2 mph - N/A   Unknown
10:48 AM 34.0 °F 25.0 °F 21.9 °F 61% 29.86 in - West 12.7 mph - N/A   Unknown
11:48 AM 37.0 °F 28.5 °F 21.0 °F 52% 29.83 in - West 13.8 mph - N/A   Unknown
12:48 PM 37.0 °F 27.7 °F 19.0 °F 48% 29.83 in - West 16.1 mph - N/A   Unknown
1:48 PM 37.0 °F 30.4 °F 19.0 °F 48% 29.81 in - West 9.2 mph - N/A   Unknown
2:48 PM 39.0 °F 34.0 °F 19.0 °F 45% 29.79 in - West 6.9 mph - N/A   Unknown
3:48 PM 37.0 °F 32.4 °F 18.0 °F 46% 29.80 in - WSW 5.8 mph - N/A   Unknown
4:48 PM 34.0 °F 28.0 °F 19.0 °F 54% 29.80 in - SW 6.9 mph - N/A   Unknown
5:48 PM 28.0 °F 24.2 °F 19.0 °F 69% 29.81 in - WNW 3.5 mph - N/A   Unknown
6:48 PM 26.1 °F - 19.0 °F 75% 29.81 in - Calm Calm - N/A   Unknown
7:48 PM 24.1 °F - 18.0 °F 77% 29.81 in - Calm Calm - N/A   Unknown
8:48 PM 21.0 °F - 17.1 °F 85% 29.79 in - Calm Calm - N/A   Unknown
9:48 PM 21.0 °F - 17.1 °F 85% 29.78 in - Calm Calm - N/A   Unknown
10:48 PM 19.0 °F 13.9 °F 15.1 °F 85% 29.76 in - WNW 3.5 mph - N/A   Unknown
11:48 PM 19.9 °F 13.4 °F 15.1 °F 81% 29.75 in - WNW 4.6 mph - N/A   Unknown